| time (UTC) | temp C | wind direction | speed KPH | gust KPH | rain 1hr cm | rain 24hr cm | rain mn cm | humidity % | barometer mb |
| 20260504020347 | 13 | 53 | 0.0 | 0.0 | 0.00 | 0.00 | 0.00 | 58 | 1016.6 |
| 20260504015843 | 13 | 66 | 0.0 | 0.0 | 0.00 | 0.00 | 0.00 | 58 | 1016.3 |
| 20260504015340 | 13 | 74 | 0.0 | 0.0 | 0.00 | 0.00 | 0.00 | 57 | 1016.4 |
| 20260504014836 | 13 | 64 | 0.0 | 1.6 | 0.00 | 0.00 | 0.00 | 57 | 1016.5 |
| 20260504014332 | 13 | 79 | 0.0 | 0.0 | 0.00 | 0.00 | 0.00 | 57 | 1016.6 |
| 20260504013830 | 13 | 84 | 0.0 | 1.6 | 0.00 | 0.00 | 0.00 | 57 | 1016.4 |
| 20260504013328 | 13 | 79 | 0.0 | 1.6 | 0.00 | 0.00 | 0.00 | 57 | 1016.4 |
| 20260504012824 | 13 | 84 | 0.0 | 0.0 | 0.00 | 0.00 | 0.00 | 56 | 1016.2 |
| 20260504012322 | 13 | 66 | 0.0 | 0.0 | 0.00 | 0.00 | 0.00 | 56 | 1016.4 |
| 20260504011819 | 13 | 89 | 0.0 | 0.0 | 0.00 | 0.00 | 0.00 | 57 | 1016.2 |
| 20260504011316 | 13 | 90 | 0.0 | 0.0 | 0.00 | 0.00 | 0.00 | 55 | 1016.4 |
| 20260504010811 | 14 | 89 | 0.0 | 0.0 | 0.00 | 0.00 | 0.00 | 55 | 1016.5 |
| 20260504010307 | 14 | 87 | 0.0 | 0.0 | 0.00 | 0.00 | 0.00 | 54 | 1016.5 |
| 20260504005804 | 14 | 93 | 0.0 | 0.0 | 0.00 | 0.00 | 0.00 | 54 | 1016.8 |
| 20260504005301 | 14 | 73 | 0.0 | 1.6 | 0.00 | 0.00 | 0.00 | 55 | 1016.7 |
| 20260504004759 | 14 | 80 | 0.0 | 0.0 | 0.00 | 0.00 | 0.00 | 55 | 1016.5 |
| 20260504004256 | 14 | 70 | 0.0 | 0.0 | 0.00 | 0.00 | 0.00 | 55 | 1016.5 |
| 20260504003752 | 14 | 88 | 0.0 | 0.0 | 0.00 | 0.00 | 0.00 | 55 | 1016.4 |
| 20260504003249 | 15 | 90 | 0.0 | 0.0 | 0.00 | 0.00 | 0.00 | 54 | 1016.3 |
| 20260504002746 | 15 | 77 | 0.0 | 0.0 | 0.00 | 0.00 | 0.00 | 53 | 1016.5 |
| 20260504002242 | 15 | 78 | 0.0 | 0.0 | 0.00 | 0.00 | 0.00 | 53 | 1016.4 |
| 20260504001741 | 15 | 87 | 0.0 | 0.0 | 0.00 | 0.00 | 0.00 | 52 | 1016.3 |
| 20260504001237 | 15 | 90 | 0.0 | 0.0 | 0.00 | 0.00 | 0.00 | 52 | 1016.5 |
| 20260504000734 | 15 | 92 | 0.0 | 0.0 | 0.00 | 0.00 | 0.00 | 51 | 1016.4 |
| 20260504000231 | 16 | 88 | 0.0 | 1.6 | 0.00 | 0.00 | 0.00 | 50 | 1016.3 |
| 20260503235729 | 16 | 103 | 0.0 | 0.0 | 0.00 | 0.00 | 0.00 | 50 | 1016.3 |
| 20260503235226 | 16 | 95 | 1.6 | 1.6 | 0.00 | 0.00 | 0.00 | 50 | 1016.4 |
| 20260503234724 | 16 | 357 | 0.0 | 1.6 | 0.00 | 0.00 | 0.00 | 49 | 1016.5 |
| 20260503234222 | 16 | 209 | 0.0 | 0.0 | 0.00 | 0.00 | 0.00 | 48 | 1016.3 |
| 20260503233718 | 16 | 209 | 0.0 | 0.0 | 0.00 | 0.00 | 0.00 | 49 | 1016.7 |
| 20260503233214 | 16 | 209 | 0.0 | 0.0 | 0.00 | 0.00 | 0.00 | 48 | 1016.5 |
| 20260503232711 | 16 | 209 | 0.0 | 0.0 | 0.00 | 0.00 | 0.00 | 47 | 1016.6 |
| 20260503232208 | 17 | 209 | 0.0 | 0.0 | 0.00 | 0.00 | 0.00 | 46 | 1016.5 |
| 20260503231707 | 17 | 209 | 1.6 | 3.2 | 0.00 | 0.00 | 0.00 | 45 | 1017.1 |
| 20260503231203 | 17 | 224 | 1.6 | 1.6 | 0.00 | 0.00 | 0.00 | 46 | 1017.0 |
| 20260503230659 | 17 | 24 | 1.6 | 1.6 | 0.00 | 0.00 | 0.00 | 45 | 1016.7 |
| 20260503230156 | 17 | 109 | 3.2 | 3.2 | 0.00 | 0.00 | 0.00 | 45 | 1017.0 |
| 20260503225654 | 17 | 212 | 1.6 | 1.6 | 0.00 | 0.00 | 0.00 | 45 | 1016.8 |
| 20260503225154 | 17 | 152 | 0.0 | 1.6 | 0.00 | 0.00 | 0.00 | 43 | 1017.1 |
| 20260503224651 | 17 | 167 | 1.6 | 3.2 | 0.00 | 0.00 | 0.00 | 44 | 1017.0 |
| 20260503224149 | 17 | 195 | 1.6 | 3.2 | 0.00 | 0.00 | 0.00 | 45 | 1016.9 |
| 20260503223647 | 17 | 143 | 1.6 | 1.6 | 0.00 | 0.00 | 0.00 | 45 | 1016.8 |
| 20260503223143 | 17 | 178 | 1.6 | 3.2 | 0.00 | 0.00 | 0.00 | 44 | 1017.3 |
| 20260503222640 | 17 | 169 | 1.6 | 1.6 | 0.00 | 0.00 | 0.00 | 44 | 1017.1 |
| 20260503222138 | 17 | 267 | 3.2 | 3.2 | 0.00 | 0.00 | 0.00 | 45 | 1017.1 |
| 20260503221636 | 17 | 164 | 3.2 | 3.2 | 0.00 | 0.00 | 0.00 | 45 | 1017.1 |
| 20260503221133 | 17 | 166 | 3.2 | 3.2 | 0.00 | 0.00 | 0.00 | 46 | 1017.3 |
| 20260503220630 | 17 | 167 | 1.6 | 1.6 | 0.00 | 0.00 | 0.00 | 45 | 1017.5 |
| 20260503220127 | 17 | 197 | 1.6 | 3.2 | 0.00 | 0.00 | 0.00 | 44 | 1017.2 |
| 20260503215624 | 17 | 254 | 3.2 | 4.8 | 0.00 | 0.00 | 0.00 | 44 | 1017.4 |
| 20260503215120 | 17 | 165 | 1.6 | 1.6 | 0.00 | 0.00 | 0.00 | 45 | 1017.5 |
| 20260503214619 | 17 | 272 | 1.6 | 1.6 | 0.00 | 0.00 | 0.00 | 44 | 1017.5 |
| 20260503214115 | 17 | 256 | 4.8 | 4.8 | 0.00 | 0.00 | 0.00 | 45 | 1017.5 |
| 20260503213614 | 17 | 143 | 3.2 | 3.2 | 0.00 | 0.00 | 0.00 | 45 | 1017.5 |
| 20260503213110 | 17 | 179 | 1.6 | 3.2 | 0.00 | 0.00 | 0.00 | 45 | 1017.8 |
| 20260503212608 | 17 | 107 | 1.6 | 1.6 | 0.00 | 0.00 | 0.00 | 45 | 1017.6 |
| 20260503212105 | 17 | 175 | 3.2 | 3.2 | 0.00 | 0.00 | 0.00 | 46 | 1017.9 |
| 20260503211602 | 17 | 93 | 1.6 | 3.2 | 0.00 | 0.00 | 0.00 | 45 | 1018.0 |
| 20260503211057 | 17 | 134 | 1.6 | 1.6 | 0.00 | 0.00 | 0.00 | 44 | 1018.0 |
| 20260503210555 | 17 | 154 | 3.2 | 3.2 | 0.00 | 0.00 | 0.00 | 43 | 1018.0 |
| 20260503210050 | 17 | 4 | 1.6 | 3.2 | 0.00 | 0.00 | 0.00 | 41 | 1017.9 |
| 20260503205547 | 17 | 119 | 0.0 | 0.0 | 0.00 | 0.00 | 0.00 | 42 | 1018.2 |
| 20260503205043 | 16 | 85 | 0.0 | 1.6 | 0.00 | 0.00 | 0.00 | 42 | 1018.1 |
| 20260503204541 | 16 | 186 | 3.2 | 3.2 | 0.00 | 0.00 | 0.00 | 41 | 1018.5 |
| 20260503204037 | 16 | 116 | 0.0 | 1.6 | 0.00 | 0.00 | 0.00 | 41 | 1018.3 |
| 20260503203535 | 16 | 167 | 8.0 | 8.0 | 0.00 | 0.00 | 0.00 | 41 | 1018.4 |
| 20260503203032 | 16 | 167 | 1.6 | 1.6 | 0.00 | 0.00 | 0.00 | 41 | 1018.8 |
| 20260503202530 | 16 | 190 | 4.8 | 4.8 | 0.00 | 0.00 | 0.00 | 39 | 1018.6 |
| 20260503202027 | 16 | 125 | 3.2 | 3.2 | 0.00 | 0.00 | 0.00 | 42 | 1018.6 |
| 20260503201526 | 17 | 123 | 4.8 | 8.0 | 0.00 | 0.00 | 0.00 | 40 | 1018.9 |
| 20260503201022 | 16 | 173 | 3.2 | 3.2 | 0.00 | 0.00 | 0.00 | 41 | 1018.9 |
| 20260503200518 | 16 | 112 | 1.6 | 1.6 | 0.00 | 0.00 | 0.00 | 42 | 1019.0 |
| 20260503200015 | 16 | 158 | 4.8 | 4.8 | 0.00 | 0.00 | 0.00 | 41 | 1019.1 |
| 20260503195513 | 16 | 181 | 3.2 | 3.2 | 0.00 | 0.00 | 0.00 | 42 | 1019.1 |
| 20260503195009 | 16 | 129 | 0.0 | 1.6 | 0.00 | 0.00 | 0.00 | 41 | 1019.2 |
| 20260503194507 | 16 | 164 | 1.6 | 1.6 | 0.00 | 0.00 | 0.00 | 41 | 1019.3 |
| 20260503194006 | 16 | 96 | 3.2 | 3.2 | 0.00 | 0.00 | 0.00 | 43 | 1019.4 |
| 20260503193502 | 16 | 144 | 0.0 | 1.6 | 0.00 | 0.00 | 0.00 | 42 | 1019.4 |
| 20260503192958 | 16 | 195 | 1.6 | 1.6 | 0.00 | 0.00 | 0.00 | 42 | 1019.3 |
| 20260503192454 | 16 | 163 | 6.4 | 8.0 | 0.00 | 0.00 | 0.00 | 42 | 1019.4 |
| 20260503191950 | 16 | 89 | 1.6 | 1.6 | 0.00 | 0.00 | 0.00 | 43 | 1019.4 |
| 20260503191448 | 16 | 7 | 0.0 | 1.6 | 0.00 | 0.00 | 0.00 | 43 | 1019.6 |
| 20260503190943 | 16 | 174 | 3.2 | 3.2 | 0.00 | 0.00 | 0.00 | 43 | 1019.5 |
| 20260503190442 | 16 | 205 | 3.2 | 4.8 | 0.00 | 0.00 | 0.00 | 42 | 1019.5 |
| 20260503185938 | 16 | 140 | 1.6 | 3.2 | 0.00 | 0.00 | 0.00 | 42 | 1019.4 |
| 20260503185435 | 16 | 143 | 3.2 | 4.8 | 0.00 | 0.00 | 0.00 | 44 | 1019.6 |
| 20260503184934 | 16 | 105 | 1.6 | 1.6 | 0.00 | 0.00 | 0.00 | 44 | 1019.5 |
| 20260503184431 | 16 | 157 | 1.6 | 3.2 | 0.00 | 0.00 | 0.00 | 42 | 1019.8 |
| 20260503183927 | 16 | 147 | 3.2 | 3.2 | 0.00 | 0.00 | 0.00 | 44 | 1019.9 |
| 20260503183424 | 16 | 160 | 1.6 | 1.6 | 0.00 | 0.00 | 0.00 | 43 | 1019.9 |
| 20260503182921 | 16 | 151 | 3.2 | 4.8 | 0.00 | 0.00 | 0.00 | 42 | 1019.9 |
| 20260503182420 | 16 | 80 | 3.2 | 3.2 | 0.00 | 0.00 | 0.00 | 42 | 1019.7 |
| 20260503181917 | 15 | 170 | 3.2 | 4.8 | 0.00 | 0.00 | 0.00 | 42 | 1019.8 |
| 20260503181414 | 15 | 214 | 1.6 | 1.6 | 0.00 | 0.00 | 0.00 | 41 | 1020.0 |
| 20260503180910 | 15 | 162 | 3.2 | 3.2 | 0.00 | 0.00 | 0.00 | 41 | 1020.2 |
| 20260503180408 | 15 | 192 | 3.2 | 3.2 | 0.00 | 0.00 | 0.00 | 41 | 1020.3 |
| 20260503175904 | 15 | 183 | 1.6 | 3.2 | 0.00 | 0.00 | 0.00 | 44 | 1020.1 |
| 20260503175403 | 15 | 268 | 1.6 | 1.6 | 0.00 | 0.00 | 0.00 | 42 | 1020.4 |
| 20260503174858 | 15 | 155 | 6.4 | 8.0 | 0.00 | 0.00 | 0.00 | 41 | 1020.3 |
| 20260503174357 | 15 | 196 | 4.8 | 4.8 | 0.00 | 0.00 | 0.00 | 42 | 1020.5 |
| 20260503173857 | 15 | 177 | 3.2 | 3.2 | 0.00 | 0.00 | 0.00 | 40 | 1020.5 |
| 20260503173353 | 15 | 158 | 4.8 | 4.8 | 0.00 | 0.00 | 0.00 | 43 | 1020.7 |
| 20260503172850 | 15 | 168 | 1.6 | 1.6 | 0.00 | 0.00 | 0.00 | 43 | 1020.8 |
| 20260503172348 | 15 | 97 | 1.6 | 1.6 | 0.00 | 0.00 | 0.00 | 42 | 1020.4 |
| 20260503171844 | 15 | 12 | 1.6 | 1.6 | 0.00 | 0.00 | 0.00 | 43 | 1020.7 |
| 20260503171341 | 15 | 108 | 3.2 | 3.2 | 0.00 | 0.00 | 0.00 | 45 | 1020.8 |
| 20260503170838 | 15 | 41 | 3.2 | 3.2 | 0.00 | 0.00 | 0.00 | 42 | 1020.9 |
| 20260503170334 | 15 | 100 | 1.6 | 3.2 | 0.00 | 0.00 | 0.00 | 43 | 1021.0 |
| 20260503150727 | 13 | 34 | 1.6 | 1.6 | 0.00 | 0.00 | 0.00 | 48 | 1022.0 |
| 20260503150223 | 13 | 240 | 1.6 | 1.6 | 0.00 | 0.00 | 0.00 | 48 | 1021.9 |
| 20260503140147 | 12 | 58 | 4.8 | 4.8 | 0.00 | 0.00 | 0.00 | 51 | 1022.0 |
| 20260503131117 | 11 | 9 | 3.2 | 4.8 | 0.00 | 0.00 | 0.00 | 65 | 1022.1 |
| 20260503130614 | 10 | 112 | 1.6 | 1.6 | 0.00 | 0.00 | 0.00 | 66 | 1022.1 |
| 20260503130112 | 10 | 50 | 0.0 | 0.0 | 0.00 | 0.00 | 0.00 | 67 | 1022.2 |
| 20260503110505 | 5 | 54 | 0.0 | 0.0 | 0.00 | 0.00 | 0.00 | 90 | 1021.1 |
| 20260503090356 | 6 | 53 | 0.0 | 0.0 | 0.00 | 0.00 | 0.00 | 85 | 1020.0 |
| 20260503081323 | 6 | 46 | 0.0 | 0.0 | 0.00 | 0.00 | 0.00 | 84 | 1019.7 |
| 20260503080819 | 6 | 46 | 0.0 | 0.0 | 0.00 | 0.00 | 0.00 | 83 | 1019.6 |
| 20260503080317 | 7 | 46 | 0.0 | 0.0 | 0.00 | 0.00 | 0.00 | 82 | 1019.8 |
| 20260503072753 | 7 | 111 | 0.0 | 0.0 | 0.00 | 0.00 | 0.00 | 79 | 1019.1 |
| 20260503072250 | 7 | 111 | 0.0 | 0.0 | 0.00 | 0.00 | 0.00 | 78 | 1019.1 |
| 20260503071746 | 8 | 111 | 0.0 | 0.0 | 0.00 | 0.00 | 0.00 | 77 | 1019.0 |
| 20260503071244 | 8 | 108 | 0.0 | 0.0 | 0.00 | 0.00 | 0.00 | 75 | 1018.9 |
| 20260503070740 | 8 | 89 | 0.0 | 0.0 | 0.00 | 0.00 | 0.00 | 75 | 1019.0 |
| 20260503070238 | 8 | 6 | 1.6 | 3.2 | 0.00 | 0.00 | 0.00 | 74 | 1019.2 |
| 20260503060203 | 8 | 73 | 0.0 | 0.0 | 0.00 | 0.00 | 0.00 | 73 | 1018.8 |
| 20260503054650 | 9 | 101 | 0.0 | 1.6 | 0.00 | 0.00 | 0.00 | 71 | 1018.9 |
| 20260503054147 | 9 | 97 | 0.0 | 0.0 | 0.00 | 0.00 | 0.00 | 72 | 1018.8 |
| 20260503053645 | 9 | 101 | 0.0 | 0.0 | 0.00 | 0.00 | 0.00 | 72 | 1018.8 |
| 20260503053144 | 10 | 63 | 1.6 | 1.6 | 0.00 | 0.00 | 0.00 | 71 | 1018.9 |
| 20260503052639 | 10 | 65 | 0.0 | 1.6 | 0.00 | 0.00 | 0.00 | 70 | 1019.0 |
| 20260503052136 | 10 | 349 | 1.6 | 3.2 | 0.00 | 0.00 | 0.00 | 70 | 1018.6 |
| 20260503051631 | 10 | 78 | 0.0 | 0.0 | 0.00 | 0.00 | 0.00 | 70 | 1018.5 |
| 20260503051129 | 10 | 113 | 0.0 | 1.6 | 0.00 | 0.00 | 0.00 | 71 | 1018.6 |
| 20260503050626 | 10 | 110 | 0.0 | 0.0 | 0.00 | 0.00 | 0.00 | 69 | 1018.9 |
| 20260503050122 | 10 | 85 | 0.0 | 0.0 | 0.00 | 0.00 | 0.00 | 69 | 1018.8 |
| 20260503045620 | 10 | 55 | 0.0 | 0.0 | 0.00 | 0.00 | 0.00 | 71 | 1018.5 |
| 20260503045117 | 9 | 112 | 0.0 | 0.0 | 0.00 | 0.00 | 0.00 | 73 | 1018.8 |
| 20260503044613 | 9 | 126 | 0.0 | 0.0 | 0.00 | 0.00 | 0.00 | 73 | 1018.9 |
| 20260503044111 | 10 | 126 | 0.0 | 0.0 | 0.00 | 0.00 | 0.00 | 73 | 1018.8 |
| 20260503043607 | 10 | 125 | 0.0 | 0.0 | 0.00 | 0.00 | 0.00 | 72 | 1018.6 |
| 20260503043104 | 10 | 113 | 0.0 | 0.0 | 0.00 | 0.00 | 0.00 | 72 | 1018.8 |
| 20260503042601 | 10 | 93 | 0.0 | 0.0 | 0.00 | 0.00 | 0.00 | 70 | 1018.5 |
| 20260503042057 | 10 | 78 | 0.0 | 0.0 | 0.00 | 0.00 | 0.00 | 69 | 1018.5 |
| 20260503041554 | 10 | 57 | 0.0 | 0.0 | 0.00 | 0.00 | 0.00 | 68 | 1018.5 |
| 20260503041052 | 10 | 41 | 0.0 | 0.0 | 0.00 | 0.00 | 0.00 | 68 | 1018.5 |
| 20260503040549 | 10 | 16 | 1.6 | 1.6 | 0.00 | 0.00 | 0.00 | 67 | 1018.5 |
| 20260503040046 | 10 | 85 | 0.0 | 0.0 | 0.00 | 0.00 | 0.00 | 67 | 1018.4 |
| 20260503035542 | 10 | 97 | 0.0 | 0.0 | 0.00 | 0.00 | 0.00 | 67 | 1018.6 |
| 20260503035040 | 10 | 51 | 0.0 | 0.0 | 0.00 | 0.00 | 0.00 | 66 | 1018.5 |
| 20260503034537 | 10 | 51 | 1.6 | 1.6 | 0.00 | 0.00 | 0.00 | 66 | 1018.8 |
| 20260503034034 | 10 | 32 | 0.0 | 1.6 | 0.00 | 0.00 | 0.00 | 66 | 1018.6 |
| 20260503033532 | 10 | 57 | 3.2 | 3.2 | 0.00 | 0.00 | 0.00 | 66 | 1018.5 |
| 20260503033029 | 11 | 74 | 1.6 | 1.6 | 0.00 | 0.00 | 0.00 | 65 | 1018.6 |
| 20260503032528 | 11 | 118 | 0.0 | 1.6 | 0.00 | 0.00 | 0.00 | 66 | 1018.5 |
| 20260503032025 | 11 | 38 | 0.0 | 1.6 | 0.00 | 0.00 | 0.00 | 65 | 1018.6 |
| 20260503031523 | 11 | 24 | 1.6 | 1.6 | 0.00 | 0.00 | 0.00 | 65 | 1018.4 |
| 20260503031020 | 11 | 28 | 3.2 | 4.8 | 0.00 | 0.00 | 0.00 | 64 | 1018.8 |
| 20260503030516 | 11 | 17 | 3.2 | 4.8 | 0.00 | 0.00 | 0.00 | 64 | 1018.3 |
| 20260503030013 | 11 | 6 | 1.6 | 1.6 | 0.00 | 0.00 | 0.00 | 63 | 1018.4 |
| 20260503025509 | 11 | 48 | 1.6 | 1.6 | 0.00 | 0.00 | 0.00 | 64 | 1018.3 |
| 20260503025008 | 11 | 50 | 4.8 | 4.8 | 0.00 | 0.00 | 0.00 | 63 | 1018.1 |
| 20260503024503 | 11 | 88 | 0.0 | 1.6 | 0.00 | 0.00 | 0.00 | 63 | 1018.1 |
| 20260503024001 | 11 | 19 | 3.2 | 3.2 | 0.00 | 0.00 | 0.00 | 64 | 1018.2 |
| 20260503023457 | 11 | 108 | 0.0 | 1.6 | 0.00 | 0.00 | 0.00 | 63 | 1018.3 |
| 20260503022954 | 11 | 19 | 1.6 | 1.6 | 0.00 | 0.00 | 0.00 | 64 | 1018.0 |
| 20260503022450 | 11 | 84 | 1.6 | 1.6 | 0.00 | 0.00 | 0.00 | 63 | 1017.9 |
| 20260503021945 | 11 | 103 | 0.0 | 0.0 | 0.00 | 0.00 | 0.00 | 63 | 1018.0 |
| 20260503021442 | 11 | 120 | 3.2 | 3.2 | 0.00 | 0.00 | 0.00 | 63 | 1017.7 |
| 20260503020940 | 11 | 99 | 0.0 | 0.0 | 0.00 | 0.00 | 0.00 | 63 | 1017.8 |
| 20260503020437 | 11 | 92 | 0.0 | 0.0 | 0.00 | 0.00 | 0.00 | 64 | 1017.7 |